Regional Weather Roundup
Issued by NWS

Home | Current Version | Previous Version | Text Only | Print | Product List | Glossary Off
Versions: 1 2 3 4 5 6 7 8 9 10 11 12 13 14 15 16 17 18 19 20 21 22 23 24 25 26 27 28

000
ASUS45 KBOI 241610
RWRID

IDAHO REGIONAL WEATHER ROUNDUP
NATIONAL WEATHER SERVICE BOISE ID
1000 AM MDT WED MAY 24 2017

NOTE: "FAIR" INDICATES FEW OR NO CLOUDS BELOW 12000 FEET
WITH NO SIGNIFICANT WEATHER AND/OR OBSTRUCTIONS TO VISIBILITY

IDZ012-014-241700-
SOUTHWEST IDAHO


CITY           SKY/WX    TMP DP  RH WIND       PRES   REMARKS
BOISE          FAIR      65  39  38 NW18      29.80S
CALDWELL       FAIR      66  35  31 W15       29.82F
MOUNTAIN HOME  FAIR      68  35  29 NW29G35   29.78S
$$

IDZ016-017-241700-
SOUTHCENTRAL IDAHO


CITY           SKY/WX    TMP DP  RH WIND       PRES   REMARKS
BURLEY         FAIR      70  44  39 W21G32    29.78S
JEROME         NOT AVBL
TWIN FALLS     NOT AVBL
$$

IDZ019>023-241700-
SOUTHEAST IDAHO


CITY           SKY/WX    TMP DP  RH WIND       PRES   REMARKS
IDAHO FALLS    FAIR      67  43  41 SW25G38   29.70F
POCATELLO      FAIR      71  43  36 SW26G36   29.75F
REXBURG        FAIR      67  41  38 S31G40    29.66F
$$

IDZ006-010-011-018-031-032-241700-
CENTRAL IDAHO MOUNTAINS


CITY           SKY/WX    TMP DP  RH WIND       PRES   REMARKS
MCCALL         FAIR      56  13  18 W9G22     29.80F
HAILEY         SUNNY     63  46  55 E12       29.77F
STANLEY          N/A     60  12  15 NW9       29.81F
SALMON         FAIR      66  41  39 NW8       29.57F
CHALLIS        FAIR      69  22  16 SW13G21   29.66F
$$

IDZ002-004-006-007-026-241700-
NORTHERN IDAHO


CITY           SKY/WX    TMP DP  RH WIND       PRES   REMARKS
LEWISTON       FAIR      58  32  37 NW15G23   29.84S
LOWELL           N/A     60  33  36 CALM      29.80F
COEUR D`ALENE  FAIR      56  27  32 W20       29.76R
MULLAN PASS    FAIR      37  19  48 W8        29.70F WCI  31
$$




USA.gov is the U.S. government's official web portal to all federal, state and local government web resources and services.